Wind_Speed
16 15 14 14 14 13 13 13 13 13 12 12 12 11 11 11 12 11 11 11 10 10 9 8 9 10 10 9 8 8 8 8 8 9 9 9 9 9 9 9 9 9 9
17 17 16 15 15 15 15 15 15 15 14 14 13 13 12 13 13 12 13 12 12 11 11 10 10 10 11 10 10 10 10 10 10 10 10 10 11 11 11 11 11 11 11
18 18 17 17 16 16 16 17 16 15 15 15 15 14 14 13 13 13 13 13 13 13 12 12 12 12 12 12 12 12 12 11 11 11 12 12 13 13 12 12 13 13 13
20 20 19 19 18 18 18 18 17 17 17 16 16 15 15 15 14 14 14 14 13 14 14 14 14 14 13 13 13 13 13 13 14 14 14 15 15 15 15 15 15 15 16
22 22 21 21 20 20 19 19 19 19 19 18 18 17 17 17 16 16 15 15 15 15 15 15 15 15 15 15 15 15 15 15 16 16 16 17 17 17 17 17 17 17 18
24 24 23 23 22 22 21 21 20 20 20 20 20 19 19 19 18 18 18 18 17 17 16 17 17 17 17 17 17 17 17 18 18 18 18 18 19 19 19 19 19 19 20
26 25 25 24 24 23 23 23 22 22 22 22 22 21 21 21 21 20 20 20 20 19 19 19 19 19 19 19 19 19 19 19 19 20 20 20 20 20 20 20 21 21 21
27 27 27 26 26 25 25 24 23 23 23 23 23 23 23 23 23 23 23 23 22 22 22 21 21 21 21 21 21 21 21 21 21 22 22 22 22 23 23 23 23 23 23
28 27 27 27 27 26 26 25 25 25 25 25 25 25 25 25 25 25 25 25 25 24 24 24 24 24 23 22 22 22 23 24 23 24 24 24 25 25 25 25 25 25 26
29 28 28 28 28 28 27 26 26 27 26 26 26 26 26 26 26 26 26 26 26 26 26 26 26 25 25 25 25 25 25 25 25 25 25 25 25 26 26 26 27 27 28
30 29 29 29 29 29 29 29 29 28 28 28 28 27 27 27 27 27 27 27 28 28 28 27 27 27 27 28 28 27 27 27 27 27 27 28 28 28 28 29 29 29 29
31 30 31 30 31 31 31 31 31 30 30 30 30 29 29 29 29 29 29 29 29 29 29 29 29 29 29 30 30 30 30 29 29 29 29 29 30 30 30 30 31 31 31
32 32 32 32 31 32 32 32 32 32 31 31 31 31 30 30 30 31 31 31 30 31 31 31 31 31 31 32 32 32 33 32 31 31 31 31 32 32 32 32 33 33 33
33 33 34 34 33 33 33 33 33 33 34 33 33 32 32 32 32 32 31 32 32 32 32 32 33 33 33 33 33 33 34 34 34 34 34 34 34 34 35 35 35 36 36
33 34 35 36 35 34 33 33 34 34 35 35 35 35 35 35 34 34 34 33 34 34 34 34 35 35 35 35 35 36 35 36 36 36 36 36 36 37 37 37 38 38 38
34 35 36 36 36 35 34 34 34 35 36 36 37 38 38 38 37 36 35 35 35 36 36 37 37 36 36 37 37 38 38 38 38 38 38 38 39 39 40 40 40 41 41
35 36 37 37 37 37 37 36 36 36 37 38 38 39 39 39 39 39 38 37 37 37 38 38 38 38 38 39 39 39 39 39 40 41 41 40 41 41 42 42 43 43 43
36 37 37 38 38 38 38 37 37 37 37 38 39 39 40 41 41 40 40 39 39 39 39 38 39 39 40 40 40 40 40 40 42 42 43 43 43 44 44 45 44 44 44
38 38 38 39 39 39 39 40 40 39 39 39 39 40 40 41 41 41 40 40 39 39 39 39 39 40 40 41 41 41 41 42 43 44 45 45 44 45 46 46 46 46 46
39 39 39 40 40 39 40 41 42 41 40 40 40 40 40 41 41 41 41 41 41 40 41 40 41 41 41 42 42 42 42 43 44 45 45 46 47 47 47 47 47 48 48
40 40 40 40 40 40 41 41 41 42 42 42 41 41 41 41 41 42 42 41 42 42 42 42 42 42 43 43 44 44 44 44 44 45 46 46 47 48 47 48 48 49 49
40 40 40 41 41 41 41 41 41 41 42 43 43 42 42 42 42 43 43 43 43 43 44 44 44 44 44 44 44 44 44 45 45 45 46 47 47 48 49 49 49 49 50
41 41 40 41 41 41 41 41 42 42 43 43 43 44 43 43 43 43 43 43 44 44 45 45 45 44 44 45 45 45 46 45 46 46 47 48 48 49 49 50 50 50 50
40 40 40 41 41 41 42 42 43 43 43 43 43 44 44 45 45 44 45 44 45 45 45 45 45 46 46 47 47 47 47 48 48 47 47 48 49 49 50 51 52 52 52
40 40 40 41 41 41 42 43 44 44 43 43 44 43 45 46 47 46 46 46 46 46 46 46 46 47 47 47 47 48 48 49 49 49 48 48 49 49 50 51 52 52 52
40 41 41 41 42 42 42 42 42 44 44 44 44 45 45 46 46 47 47 46 46 46 47 48 48 48 48 48 48 48 48 48 49 49 48 48 48 48 49 50 51 52 52
Wind_Direction
242 243 244 246 248 250 250 251 250 252 250 249 251 252 255 255 254 255 256 257 258 259 260 264 265 263 261 261 260 259 261 261 263 263 264 265 266 267 267 267 267 272 276
243 245 247 249 250 251 251 250 250 250 252 252 251 253 256 255 253 255 255 257 257 257 258 260 263 265 260 259 259 259 259 260 264 266 266 267 267 268 266 266 267 270 272
246 246 247 249 251 252 252 252 254 251 252 255 256 256 257 258 256 256 255 255 256 257 258 259 260 261 260 259 259 259 259 260 262 265 266 267 269 271 269 268 268 270 272
247 247 247 249 251 253 252 253 253 253 255 257 257 259 260 258 260 261 259 256 258 260 261 263 262 263 264 262 260 260 262 263 265 266 267 269 270 271 271 271 271 271 272
247 248 248 249 251 253 253 253 255 256 257 256 257 259 260 260 260 260 260 258 260 262 262 264 265 266 265 264 265 265 265 267 267 268 269 269 270 270 271 272 272 272 273
249 249 249 249 251 253 254 254 255 256 256 257 257 258 260 260 260 259 260 260 261 263 263 265 267 267 266 266 266 268 269 268 268 269 270 271 271 271 272 273 273 274 275
250 249 250 249 250 251 254 255 254 256 256 258 257 258 259 260 260 259 259 261 263 264 265 267 267 267 267 267 268 270 270 270 270 271 272 272 274 272 272 274 274 275 276
251 250 250 250 250 251 253 254 254 256 256 257 258 258 259 260 260 260 262 263 264 265 266 266 267 267 267 267 268 269 270 271 272 273 274 273 273 273 272 274 275 275 276
252 251 250 251 250 251 254 255 255 256 257 258 260 260 260 260 261 261 262 264 265 265 266 266 266 266 267 267 267 269 270 270 272 273 274 275 274 273 272 274 275 276 276
251 250 248 250 251 252 253 255 257 257 258 260 262 261 262 262 262 262 263 263 264 265 265 266 266 266 267 268 268 270 271 271 272 273 274 274 276 274 274 274 275 276 277
250 250 249 250 252 253 254 256 258 258 258 260 261 264 264 264 264 264 264 264 264 264 265 266 266 267 268 269 269 270 272 272 273 273 273 274 274 275 275 275 276 276 276
250 250 250 250 252 253 254 256 258 259 260 260 261 263 263 264 264 264 264 264 265 265 265 266 267 268 269 270 271 271 271 272 272 273 273 274 274 275 276 276 276 275 275
250 250 251 251 252 254 256 256 257 258 259 261 261 262 263 264 264 264 264 264 265 265 265 266 267 268 269 270 271 271 271 271 271 272 273 274 274 275 275 276 277 277 275
251 252 251 252 253 255 258 258 258 259 260 261 262 262 263 264 266 265 264 264 265 265 266 267 267 268 269 270 271 272 272 271 271 272 273 273 274 275 276 277 276 278 277
252 252 252 252 253 254 256 259 259 260 260 261 261 261 263 263 265 265 265 264 265 266 266 266 267 268 270 271 272 272 272 272 272 272 272 273 273 274 276 276 277 278 278
253 253 252 250 253 254 255 257 259 260 261 261 262 262 263 263 264 264 265 264 265 266 266 267 268 269 270 270 271 273 273 273 273 272 273 273 274 275 275 276 277 277 278
253 253 254 252 253 254 256 259 260 261 261 263 262 263 264 264 264 265 266 267 267 267 267 268 269 270 270 271 272 273 273 273 273 273 273 274 275 276 276 276 277 277 277
255 255 255 255 256 257 257 258 260 261 262 262 264 264 265 265 265 265 265 267 268 269 269 268 270 270 271 272 273 272 273 274 274 274 274 275 275 276 276 276 277 277 278
256 256 255 255 256 257 257 258 259 261 263 264 265 265 265 266 265 265 265 266 267 268 268 269 271 270 271 271 273 273 274 275 275 275 275 275 276 276 276 277 277 277 278
257 257 257 257 257 257 258 259 260 262 264 265 265 265 265 265 265 265 265 266 266 267 268 270 270 270 271 272 273 274 275 276 277 276 275 275 276 276 277 277 277 278 279
257 258 258 258 258 258 259 260 262 263 264 266 266 267 267 266 265 265 266 267 267 267 268 270 272 271 271 273 273 274 275 277 277 277 277 277 277 277 278 277 277 278 278
258 258 259 259 259 260 260 260 261 262 264 265 266 266 267 268 267 266 266 267 268 269 269 270 272 273 273 273 274 274 275 276 277 278 279 279 279 279 279 278 278 277 277
259 258 258 259 259 259 260 261 262 262 264 266 266 266 266 267 267 267 267 268 269 270 271 271 271 272 273 275 275 275 276 276 278 279 280 280 281 281 280 279 278 278 278
262 259 260 261 260 260 260 261 262 262 263 265 267 267 267 267 267 268 268 268 269 270 270 270 271 272 273 275 276 276 277 278 278 278 279 281 282 282 281 280 280 280 279
263 261 262 263 264 263 263 263 263 263 264 266 266 267 267 268 268 268 269 269 270 270 270 270 271 272 274 274 274 276 278 278 279 279 279 280 281 282 282 281 281 281 280
263 263 264 265 266 266 265 264 264 264 265 266 266 266 267 267 267 268 269 269 270 270 270 271 272 272 273 274 274 276 277 279 280 280 280 281 282 283 283 283 283 282 280
Height
5836 5837 5838 5839 5840 5841 5841 5842 5843 5844 5844 5845 5846 5846 5846 5847 5847 5848 5848 5848 5849 5849 5850 5850 5850 5851 5851 5851 5852 5852 5852 5853 5853 5853 5853 5854 5854 5854 5854 5854 5854 5854 5854
5834 5835 5836 5837 5837 5838 5839 5840 5841 5841 5842 5843 5843 5844 5844 5844 5845 5845 5846 5846 5847 5847 5848 5848 5849 5849 5849 5849 5850 5850 5851 5851 5851 5851 5852 5852 5852 5852 5852 5852 5852 5852 5853
5831 5832 5833 5834 5835 5836 5837 5837 5838 5839 5839 5840 5841 5842 5842 5842 5842 5843 5844 5844 5845 5845 5846 5846 5846 5847 5847 5847 5847 5848 5849 5849 5849 5849 5850 5850 5850 5850 5850 5850 5850 5850 5850
5827 5829 5830 5831 5832 5833 5833 5834 5835 5836 5837 5838 5838 5839 5839 5840 5840 5841 5841 5842 5843 5843 5843 5844 5844 5844 5845 5845 5845 5846 5846 5846 5847 5847 5848 5848 5848 5848 5848 5848 5848 5848 5848
5824 5825 5826 5827 5828 5830 5830 5831 5832 5833 5834 5835 5835 5836 5837 5837 5838 5838 5839 5839 5840 5841 5841 5841 5841 5842 5842 5842 5843 5843 5843 5843 5844 5844 5844 5845 5845 5845 5844 5845 5845 5845 5845
5820 5821 5822 5823 5825 5826 5826 5827 5829 5829 5830 5831 5832 5833 5833 5834 5834 5835 5836 5836 5837 5838 5838 5838 5839 5839 5839 5840 5840 5840 5840 5840 5840 5841 5841 5841 5841 5841 5841 5841 5841 5841 5841
5815 5817 5818 5819 5820 5821 5822 5823 5824 5825 5826 5827 5828 5829 5830 5830 5831 5831 5832 5833 5834 5834 5834 5835 5835 5835 5836 5836 5836 5836 5836 5836 5837 5837 5837 5837 5837 5837 5837 5837 5837 5837 5837
5811 5812 5813 5814 5816 5817 5818 5819 5820 5821 5822 5823 5824 5825 5825 5826 5827 5828 5828 5829 5830 5830 5830 5831 5831 5831 5831 5832 5832 5832 5832 5833 5833 5833 5833 5833 5833 5833 5833 5833 5833 5833 5832
5805 5807 5808 5809 5811 5812 5813 5814 5815 5816 5817 5818 5819 5820 5821 5821 5822 5823 5824 5824 5825 5825 5826 5826 5827 5827 5827 5828 5828 5828 5828 5828 5828 5828 5828 5828 5828 5828 5828 5828 5828 5828 5827
5800 5802 5803 5804 5806 5807 5808 5809 5810 5812 5813 5814 5814 5815 5816 5817 5817 5818 5818 5819 5820 5820 5821 5821 5822 5822 5822 5823 5823 5823 5823 5823 5823 5823 5823 5823 5823 5823 5823 5823 5822 5822 5822
5794 5796 5798 5799 5801 5802 5803 5804 5805 5806 5807 5808 5809 5810 5811 5811 5812 5812 5813 5813 5814 5815 5816 5816 5816 5817 5817 5817 5817 5818 5818 5818 5818 5818 5817 5817 5817 5817 5817 5817 5816 5816 5816
5788 5790 5792 5794 5795 5796 5797 5799 5800 5801 5802 5803 5803 5804 5805 5806 5806 5807 5807 5808 5808 5809 5810 5810 5811 5811 5811 5811 5811 5811 5812 5812 5812 5812 5811 5811 5811 5811 5811 5810 5810 5810 5809
5782 5784 5786 5787 5789 5790 5791 5792 5793 5794 5795 5796 5797 5798 5799 5799 5800 5800 5801 5802 5802 5803 5804 5804 5805 5805 5805 5805 5805 5805 5805 5805 5805 5805 5805 5805 5804 5804 5804 5803 5803 5803 5802
5776 5777 5779 5781 5782 5783 5784 5786 5787 5788 5789 5790 5791 5792 5792 5793 5793 5794 5794 5795 5796 5796 5797 5798 5798 5798 5798 5798 5798 5798 5798 5798 5798 5798 5798 5798 5797 5797 5796 5796 5795 5795 5794
5769 5771 5772 5773 5775 5776 5777 5778 5779 5781 5782 5783 5784 5785 5785 5786 5787 5787 5788 5788 5789 5790 5790 5791 5791 5791 5791 5791 5791 5791 5791 5790 5790 5790 5790 5790 5790 5789 5789 5788 5787 5787 5786
5762 5763 5764 5766 5767 5769 5770 5771 5772 5773 5774 5775 5776 5777 5778 5778 5779 5780 5780 5781 5782 5782 5783 5783 5783 5783 5783 5783 5783 5783 5782 5782 5782 5782 5782 5782 5781 5781 5780 5779 5779 5778 5777
5754 5756 5757 5758 5760 5761 5763 5764 5765 5766 5767 5768 5768 5769 5770 5771 5771 5772 5773 5773 5774 5774 5775 5775 5775 5775 5775 5775 5774 5774 5774 5773 5773 5773 5773 5772 5772 5772 5771 5770 5769 5768 5767
5746 5748 5749 5751 5752 5753 5755 5756 5757 5758 5759 5760 5760 5761 5762 5762 5763 5764 5765 5765 5766 5766 5766 5766 5766 5767 5766 5766 5766 5765 5765 5764 5764 5763 5763 5763 5762 5762 5761 5760 5759 5758 5757
5738 5739 5741 5742 5744 5745 5747 5748 5749 5750 5751 5751 5752 5753 5753 5754 5754 5755 5756 5757 5757 5757 5757 5757 5758 5758 5758 5757 5757 5756 5756 5755 5754 5753 5753 5752 5752 5751 5750 5750 5749 5748 5747
5729 5730 5732 5733 5735 5737 5738 5739 5740 5741 5742 5742 5743 5744 5744 5745 5745 5746 5747 5747 5748 5748 5748 5748 5749 5749 5749 5748 5748 5747 5746 5745 5744 5743 5743 5742 5741 5740 5739 5738 5738 5737 5736
5720 5722 5723 5725 5726 5728 5729 5731 5731 5732 5732 5733 5734 5735 5735 5736 5736 5737 5737 5738 5738 5739 5739 5739 5739 5739 5739 5738 5738 5738 5737 5736 5734 5733 5732 5731 5730 5729 5728 5727 5726 5725 5724
5711 5712 5714 5715 5717 5719 5720 5721 5722 5723 5723 5724 5725 5725 5726 5726 5726 5727 5728 5728 5728 5729 5730 5729 5729 5729 5728 5728 5728 5727 5727 5727 5725 5723 5721 5720 5719 5718 5717 5715 5714 5713 5712
5701 5703 5704 5706 5707 5709 5710 5711 5713 5713 5714 5714 5715 5715 5716 5716 5716 5717 5718 5718 5719 5719 5719 5719 5719 5719 5718 5718 5717 5716 5716 5716 5715 5713 5711 5709 5707 5706 5704 5703 5702 5700 5699
5691 5693 5694 5695 5697 5699 5700 5701 5702 5703 5704 5704 5704 5705 5705 5705 5706 5707 5707 5708 5708 5708 5708 5708 5708 5708 5708 5707 5706 5705 5704 5703 5702 5702 5701 5698 5696 5694 5692 5690 5689 5687 5685
5682 5683 5684 5685 5686 5688 5689 5690 5691 5692 5693 5693 5694 5694 5694 5695 5695 5696 5696 5696 5697 5697 5697 5697 5697 5696 5696 5696 5695 5694 5692 5691 5689 5689 5689 5687 5684 5682 5680 5677 5675 5673 5672
5672 5673 5675 5676 5676 5677 5678 5679 5680 5681 5681 5682 5682 5683 5683 5683 5684 5684 5685 5685 5685 5685 5686 5685 5685 5684 5684 5683 5683 5682 5680 5679 5677 5676 5675 5674 5672 5670 5667 5664 5662 5659 5658